Location: Ravensburg
(47.7866°N, 9.6124°E)
Time: 19:25:34
(UTC+01:00)

NOAA 19 - Visible Passes

Search period start: 07 March 2026 00:00
Search period end: 17 March 2026 00:00
Orbit: 838 x 857 km, 99.0° (Epoch: 7 March)

Date Brightness Start Highest point End Pass type
(mag) Time Alt. Az. Time Alt. Az. Time Alt. Az.
7 Mar 6.4 21:02:50 31° NNE 21:02:50 31° NNE 21:06:13 10° N visible
7 Mar 7.4 22:44:46 21° NW 22:44:46 21° NW 22:46:49 10° NNW visible
8 Mar 6.4 20:49:48 28° NE 20:49:48 28° NE 20:53:17 10° N visible
8 Mar 7.1 22:31:44 25° NW 22:31:44 25° NW 22:34:14 10° NNW visible
9 Mar 6.5 20:36:47 25° NE 20:36:47 25° NE 20:40:20 10° N visible
9 Mar 6.8 22:18:42 30° NW 22:18:42 30° NW 22:21:35 10° NNW visible
10 Mar 6.7 20:23:45 21° NE 20:23:45 21° NE 20:27:18 10° N visible
10 Mar 6.5 22:05:41 36° NNW 22:05:41 36° NNW 22:08:53 10° NNW visible
11 Mar 6.8 20:10:43 17° NE 20:10:43 17° NE 20:14:12 10° NNE visible
11 Mar 6.3 21:52:39 41° NNW 21:52:39 41° NNW 21:56:09 10° NNW visible
11 Mar 8.0 23:34:35 11° WNW 23:34:35 11° WNW 23:34:52 10° NW visible
12 Mar 7.0 19:57:42 14° ENE 19:58:09 14° NE 20:00:57 10° NNE visible
12 Mar 6.0 21:39:38 44° N 21:39:38 44° N 21:43:22 10° NNW visible
12 Mar 7.8 23:21:33 14° WNW 23:21:33 14° WNW 23:22:48 10° NW visible
13 Mar 7.1 19:44:40 11° ENE 19:45:38 11° NE 19:47:23 10° NNE visible
13 Mar 5.9 21:26:36 44° NNE 21:26:36 44° NNE 21:30:34 10° N visible
13 Mar 7.6 23:08:32 18° WNW 23:08:32 18° WNW 23:10:29 10° NW visible
14 Mar 5.9 21:13:34 41° NNE 21:13:34 41° NNE 21:17:43 10° N visible
14 Mar 7.3 22:55:30 22° WNW 22:55:30 22° WNW 22:58:02 10° NW visible
15 Mar 6.0 21:00:33 36° NE 21:00:33 36° NE 21:04:50 10° N visible
15 Mar 7.0 22:42:29 27° NW 22:42:29 27° NW 22:45:30 10° NNW visible
16 Mar 6.2 20:47:31 30° NE 20:47:31 30° NE 20:51:55 10° N visible
16 Mar 6.7 22:29:28 34° NW 22:29:28 34° NW 22:32:53 10° NNW visible
